FENGYUN 1C DEB, 31721

Orbit data source: Space-Track

FENGYUN 1C DEB, 31721 is space debris in SSO originally from a launch on Mon, 10 May 1999 UTC launched from the Taiyaun Space Center, China (TSC). Fengyun 1C debris stems from the Chinese weather satellite Fengyun-1C, which was intentionally destroyed by a Chinese anti-satellite missile in 2007. This event dramatically increased the amount of space debris, with thousands of trackable fragments posing hazards to satellites and human spaceflight. The Fengyun 1C debris cloud has become a focal point in discussions about space sustainability and the need for international regulations to prevent the creation of new debris.

Loading next visibility...
Identifier
31721, 1999-025CDU
Orbit
SSO
Country
Flag of CNCN / PRC
Related business
Manufacturer
Unknown
Mission
Spacecraft
Bus & Motor
Unknown
Mass
Unknown
Launch date (UTC)
1999-05-10 (27 years ago)
Launch vehicle
Unknown
Launch site
Taiyaun Space Center, China (TSC)
Object type
Payload
Rocket body
Debris
Shape & HBR
Unknown shape, 0.1 m
Radar Cross Section
Small (<0.1 m²)

Expand to show TLE details & history
Last TLE update: 1 day ago

TLE from 1 day ago
0 FENGYUN 1C DEB
1 31721U 99025CDU 25352.78972546  .00000311  00000-0  26542-3 0  9991
2 31721  99.7815 332.5593 0317555 167.8662 315.5677 13.73783105674691
Epoch: 2025-12-18T18:57Z
TLE epoch observation values (Epoch: 2025-12-18T18:57:12.279Z)
Latitude
57.91746°
Longitude
156.49353°
Altitude
832.436 km
Speed
7.524 km/s
True Right ascension
11h 13m 44s
True Declination
57° 45' 51"
Sunlit
Object was in daylight at epoch
Visualization orbit readout
Latitude
Unknown
Longitude
Unknown
Altitude
Unknown
Speed
Unknown
Apparent Right ascension
Unknown
Apparent Declination
Unknown
Sunlit
N/A
Visualization observer readout
Local Sidereal Time
04:50:05
Azimuth
Unknown
Elevation
Unknown
Doppler factor
Unknown
Orbital elements
Apogee altitude
1,217.056 km
Perigee altitude
749.524 km
Semi-major axis
7,361.427 km
Eccentricity
0.03176
Inclination
99.7815°
RAAN
332.5593°
Arg. of periapsis
167.8662°
True anomaly
312.94691°
Mean anomaly
315.5677°
Eccentric anomaly
314.26475°
Mean motion
3.43637 °/min
Orbital period
104.76 mins
BSTAR
0.00026542
Loading maneuver chart data...
Computing Atmospheric mass density...

Documentation

Showing up to 5 results
|